This is the latest recevied weather packets stored in our database for station/object SP9MUF-14. If no packets are shown the sender has not sent any weather packets the latest 10 day(s).
| Time | Temp. | Humidity | Pressure | Rain* | Wind** | Luminosity | Snow |
|---|---|---|---|---|---|---|---|
| 1787571961 | 20.56° C | 44% | 1021.1 hPa | 0 mm | - | 657 W/m² | - |
| 1787571658 | 20.56° C | 43% | 1020.9 hPa | 0 mm | - | 658 W/m² | - |
| 1787571054 | 20.56° C | 44% | 1021.2 hPa | 0 mm | - | 674 W/m² | - |
| 1787570751 | 20° C | 46% | 1021.2 hPa | 0 mm | - | 650 W/m² | - |
| 1787570449 | 20.56° C | 46% | 1021.3 hPa | 0 mm | - | 154 W/m² | - |
| 1787570147 | 20.56° C | 46% | 1021.2 hPa | 0 mm | - | 131 W/m² | - |
| 1787569845 | 20.56° C | 47% | 1021.2 hPa | 0 mm | - | 678 W/m² | - |
| 1787569543 | 20° C | 49% | 1021.2 hPa | 0 mm | - | 135 W/m² | - |
| 1787569240 | 20.56° C | 47% | 1021.2 hPa | 0 mm | - | 164 W/m² | - |
| 1787568940 | 20° C | 49% | 1021.4 hPa | 0 mm | - | 641 W/m² | - |
| 1787568636 | 20.56° C | 48% | 1021.3 hPa | 0 mm | - | 123 W/m² | - |
| 1787568334 | 20.56° C | 48% | 1021.3 hPa | 0 mm | - | 690 W/m² | - |
| 1787568031 | 20.56° C | 48% | 1021.4 hPa | 0 mm | - | 688 W/m² | - |
| 1787567729 | 20° C | 46% | 1021.4 hPa | 0 mm | - | 696 W/m² | - |
| 1787567426 | 20.56° C | 47% | 1021.3 hPa | 0 mm | - | 628 W/m² | - |
| 1787567124 | 20° C | 48% | 1021.4 hPa | 0 mm | - | 626 W/m² | - |
| 1787566822 | 20° C | 49% | 1021.5 hPa | 0 mm | - | 639 W/m² | - |
| 1787566519 | 20° C | 49% | 1021.4 hPa | 0 mm | - | 640 W/m² | - |
| 1787566217 | 20° C | 47% | 1021.5 hPa | 0 mm | - | 630 W/m² | - |
| 1787565915 | 20° C | 47% | 1021.6 hPa | 0 mm | - | 624 W/m² | - |
| 1787565613 | 18.89° C | 48% | 1021.7 hPa | 0 mm | - | 617 W/m² | - |
| 1787565310 | 18.89° C | 48% | 1021.5 hPa | 0 mm | - | 614 W/m² | - |
| 1787565008 | 18.89° C | 48% | 1021.7 hPa | 0 mm | - | 605 W/m² | - |
| 1787564706 | 18.89° C | 49% | 1021.7 hPa | 0 mm | - | 604 W/m² | - |
| 1787564404 | 18.89° C | 49% | 1021.7 hPa | 0 mm | - | 600 W/m² | - |
* Rain latest hour (hover to see other rain measurements)
** Current wind speed in m/s (hover to see current wind gust speed)